This is the latest recevied weather packets stored in our database for station/object SQ7IQO. If no packets are shown the sender has not sent any weather packets the latest 10 day(s).
| Time | Temp. | Humidity | Pressure | Rain* | Wind** | Luminosity | Snow |
|---|---|---|---|---|---|---|---|
| 1787979521 | 17.22° C | 97% | 1012.5 hPa | 52.83 mm | 2.24 m/s, ° | - | - |
| 1787979461 | 17.22° C | 97% | 1012.5 hPa | 52.83 mm | 1.79 m/s, ° | - | - |
| 1787979401 | 17.78° C | 97% | 1012.6 hPa | 35.81 mm | 0.89 m/s, ° | - | - |
| 1787979341 | 17.78° C | 97% | 1012.5 hPa | 35.81 mm | 1.79 m/s, ° | - | - |
| 1787979281 | 17.78° C | 97% | 1012.4 hPa | 35.81 mm | 0.45 m/s, ° | - | - |
| 1787979221 | 17.78° C | 97% | 1012.4 hPa | 35.81 mm | 1.79 m/s, ° | - | - |
| 1787979161 | 17.78° C | 97% | 1012.4 hPa | 35.81 mm | 1.34 m/s, ° | - | - |
| 1787979101 | 17.78° C | 97% | 1012.5 hPa | 35.81 mm | 2.24 m/s, ° | - | - |
| 1787978981 | 17.78° C | 97% | 1012.4 hPa | 35.81 mm | 2.24 m/s, ° | - | - |
| 1787978921 | 17.78° C | 97% | 1012.5 hPa | 35.81 mm | 1.34 m/s, ° | - | - |
| 1787978861 | 17.78° C | 97% | 1012.8 hPa | 35.81 mm | 1.79 m/s, ° | - | - |
| 1787978801 | 17.78° C | 97% | 1012.5 hPa | 16.76 mm | 1.34 m/s, ° | - | - |
| 1787978741 | 17.78° C | 97% | 1012.4 hPa | 16.76 mm | 1.34 m/s, ° | - | - |
| 1787978681 | 17.78° C | 97% | 1042.2 hPa | 16.76 mm | 1.34 m/s, ° | - | - |
| 1787978621 | 17.78° C | 97% | 1012.5 hPa | 16.76 mm | 1.34 m/s, ° | - | - |
| 1787978561 | 17.78° C | 97% | 1012.3 hPa | 16.76 mm | 1.79 m/s, ° | - | - |
| 1787978501 | 17.78° C | 97% | 1012.3 hPa | 16.76 mm | 1.79 m/s, ° | - | - |
| 1787978441 | 17.78° C | 97% | 1012.4 hPa | 16.76 mm | 1.79 m/s, ° | - | - |
| 1787978381 | 17.78° C | 97% | 1012.3 hPa | 16.76 mm | 1.79 m/s, ° | - | - |
| 1787978321 | 17.78° C | 97% | 1012.4 hPa | 16.76 mm | 2.68 m/s, ° | - | - |
| 1787978261 | 17.78° C | 96% | 1012.6 hPa | 16.76 mm | 1.34 m/s, ° | - | - |
| 1787978201 | 17.78° C | 96% | 1012.3 hPa | 2.79 mm | 1.79 m/s, ° | - | - |
| 1787978141 | 17.78° C | 96% | 1241 hPa | 2.79 mm | 2.24 m/s, ° | - | - |
| 1787978081 | 17.78° C | 96% | 1015.1 hPa | 2.79 mm | 2.24 m/s, ° | - | - |
| 1787978021 | 17.78° C | 96% | 1012.3 hPa | 2.79 mm | 1.34 m/s, ° | - | - |
* Rain latest hour (hover to see other rain measurements)
** Current wind speed in m/s (hover to see current wind gust speed)